Regional Weather Roundup
Issued by NWS

Home | Current Version | Previous Version | Text Only | Print | Product List | Glossary Off
Versions: 1 2 3 4 5 6 7 8 9 10 11 12 13 14 15 16 17 18 19 20 21 22 23 24 25 26 27 28 29 30 31 32 33 34 35 36 37 38 39 40 41 42 43 44 45 46 47 48 49 50

000
ASUS43 KLOT 070908
RWRIL

ILLINOIS REGIONAL WEATHER ROUNDUP
NATIONAL WEATHER SERVICE CHICAGO/ROMEOVILLE IL
300 AM CST SUN FEB 07 2016

NOTE: "FAIR" INDICATES FEW OR NO CLOUDS BELOW 12,000 FEET WITH NO
SIGNIFICANT WEATHER AND/OR OBSTRUCTIONS TO VISIBILITY.

* THESE STATIONS ARE NOT UNDER NWS QUALITY CONTROL. THEY ALSO MAY NOT
  REPORT WEATHER SUCH AS PRECIPITATION OR FOG.

ILZ001-002-007-009-015-016-024-071000-
NORTHWEST ILLINOIS

CITY           SKY/WX    TMP DP  RH WIND       PRES   REMARKS
MOLINE         MOCLDY    39  29  67 SW15      29.91F WCI  31
STERLING*      CLOUDY    36  28  75 S6        29.90F WCI  31
SAVANNA*       PTCLDY    36  31  82 S10       29.88F WCI  28
$$

ILZ003-004-008-010-011-017-018-071000-
NORTH CENTRAL ILLINOIS

CITY           SKY/WX    TMP DP  RH WIND       PRES   REMARKS
ROCKFORD       CLOUDY    36  30  79 S9        29.93F WCI  29
FREEPORT*      CLOUDY    35  30  81 S18       29.91F WCI  25
ROCHELLE*      CLOUDY    34  31  88 S12       29.94F WCI  25
DE KALB*       CLOUDY    33  30  90 S12       29.96F WCI  24
PERU*          CLOUDY    -2  -6  82 S12       29.98F WCI -19
$$

ILZ005-006-012>014-019>023-071000-
NORTHEAST ILLINOIS

CITY           SKY/WX    TMP DP  RH WIND       PRES   REMARKS
CHICAGO-OHARE  CLOUDY    35  29  78 SW10      29.97F WCI  27
CHICAGO-MIDWAY CLOUDY    37  28  70 S8        29.99F WCI  31
AURORA         CLOUDY    35  29  78 S9        29.97F WCI  28
LANSING*       CLOUDY    35  30  83 S9        30.01F WCI  28
JOLIET*        CLOUDY    37  32  84 S5        30.00F WCI  33
WAUKEGAN       CLOUDY    35  29  78 SW9       29.93F WCI  28
DUPAGE AIRPORT MOCLDY    33  27  78 S10       29.96F WCI  25
KANKAKEE*      PTCLDY    35  31  85 S9        30.04F WCI  27
WHEELING       CLOUDY    36  29  75 S10       29.97F WCI  28
MORRIS*          N/A     35  30  81 S7        29.97F WCI  29
ROMEOVILLE*    CLOUDY    35  30  81 S10       29.99F WCI  27
NORTHERLY ISL    N/A     38  29  70 SW9         N/A  WCI  31
$$

LMZ740>746-071000-
SOUTHERN LAKE MICHIGAN

STATION/POSITION SKY/WX   TEMP    WIND        PRES    VSBY  WAVE
                          AIR SEA DIR/SP/G                  HT/PER
                          (F)     (DEG/KT/KT) (MB)    (MI)  (FT/S)
HARRISON CRIB              39     200/ 16/ 17   N/A
BURNHAM HARBOR             38     190/  7/ 10   N/A
CALUMET HARBOR             36     190/  5/  7 1016.0F
BURNS HARBOR               38     200/ 14/ 23 1017.6F
MICHIGAN CITY              37     160/ 13/ 15   N/A
$$

ILZ025>027-034>036-040-047-049-050-058-095>099-071000-
WEST-CENTRAL ILLINOIS

CITY           SKY/WX    TMP DP  RH WIND       PRES   REMARKS
QUINCY         CLOUDY    38  28  67 SW12      30.02F WCI  30
GALESBURG*     CLOUDY    36  30  79 S14       29.96F WCI  27
MACOMB*        CLOUDY    38  30  74 SW14G21   30.02F WCI  29
JACKSONVILLE*  PTCLDY    41  30  66 S12       30.05F
PITTSFIELD*    CLOUDY    38  30  71 S8        30.05F WCI  33
$$

ILZ028>032-037-038-041>044-048-051>054-059>061-071000-
CENTRAL ILLINOIS

CITY           SKY/WX    TMP DP  RH WIND       PRES   REMARKS
PONTIAC        CLOUDY    37  32  81 S9        30.02F WCI  30
BLOOMINGTON    CLOUDY    35  32  89 S9        30.04F WCI  28
DECATUR        CLOUDY    37  28  70 SW12      30.08F WCI  29
PEORIA         PTCLDY    36  28  73 S10       30.01F WCI  28
LACON*         CLOUDY    38  28  68 SW10      29.98F WCI  30
LINCOLN*       CLOUDY    39  31  73 SW7       30.06F WCI  34
SPRINGFIELD    CLOUDY    39  29  67 S14       30.07F WCI  31
TAYLORVILLE    CLOUDY    36  30  80 S10       30.10F WCI  28
$$

ILZ033-039-045-046-055>057-062-063-071000-
EAST-CENTRAL ILLINOIS

CITY           SKY/WX    TMP DP  RH WIND       PRES   REMARKS
CHAMPAIGN      CLOUDY    35  29  78 S12       30.08F WCI  27
RANTOUL*       CLOUDY    37  31  79 SW12      30.07F WCI  29
MATTOON        PTCLDY    38  23  55 SW9       30.10F WCI  31
PARIS*         PTCLDY    35  28  75 SW8       30.11F WCI  28
$$

ILZ079-100>102-071000-
SOUTHWEST ILLINOIS

CITY           SKY/WX    TMP DP  RH WIND       PRES   REMARKS
ALTON          CLOUDY    40  25  54 S10       30.13F
BELLEVILLE     PTCLDY    35  23  62 CALM      30.14F
CAHOKIA*       PTCLDY    42  18  37 S8        30.14F
SPARTA*        CLOUDY    38  22  52 S5        30.17F WCI  34
$$

ILZ064>066-069>071-074>076-080>082-084>086-088>090-092>094-071000-
SOUTH-CENTRAL ILLINOIS

CITY           SKY/WX    TMP DP  RH WIND       PRES   REMARKS
CARBONDALE     CLEAR     36  20  52 SW8       30.19F WCI  30
CAIRO*         CLEAR     30  26  83 SW3       30.21F
EFFINGHAM*     CLEAR     37  25  61 S8        30.15F WCI  31
MARION         CLEAR     37  23  56 SW5       30.19F WCI  34
MT. VERNON     CLEAR     34  21  60 SW5       30.17F WCI  30
CENTRALIA*     CLEAR     38  26  61 SW8       30.15F WCI  32
SALEM*         CLEAR     40  23  51 SW9       30.15F
METROPOLIS*    CLEAR     27  25  91 CALM      30.22F
$$

ILZ067-068-072-073-078-083-087-091-071000-
SOUTHEAST ILLINOIS

CITY           SKY/WX    TMP DP  RH WIND       PRES   REMARKS
LAWRENCEVILLE  CLEAR     36  24  62 SW9       30.16F WCI  29
FLORA*         CLEAR     39  26  58 SW9       30.16F WCI  33
FAIRFIELD*     CLEAR     36  25  63 SW5       30.16F WCI  32
HARRISBURG*    CLEAR     36  22  57 CALM      30.19F
ROBINSON*      CLEAR     37  25  61 SW12      30.16F WCI  29
CARMI*         CLEAR     37  24  60 SW9       30.17F WCI  30
$$

ABBREVIATIONS USED IN REMARKS
   TC - TEMPERATURE IN CELSIUS
  WCI - WIND CHILL INDEX
   HX - HEAT INDEX
  VSB - VISIBILITY
$$





USA.gov is the U.S. government's official web portal to all federal, state and local government web resources and services.